Year,Month,Day,Hour,Minute,Value (Times are PST for temperature in C)
2009,08,08,00,00,15.00
2009,08,08,00,01,15.00
2009,08,08,00,02,15.00
2009,08,08,00,03,15.00
2009,08,08,00,04,15.00
2009,08,08,00,05,15.00
2009,08,08,00,06,15.00
2009,08,08,00,07,15.00
2009,08,08,00,08,15.00
2009,08,08,00,09,15.00
2009,08,08,00,10,15.00
2009,08,08,00,11,15.00
2009,08,08,00,12,15.00
2009,08,08,00,13,15.00
2009,08,08,00,14,15.00
2009,08,08,00,15,15.00
2009,08,08,00,16,15.00
2009,08,08,00,17,15.00
2009,08,08,00,18,15.00
2009,08,08,00,19,15.00
2009,08,08,00,20,15.00
2009,08,08,00,21,15.00
2009,08,08,00,22,15.00
2009,08,08,00,23,15.00
2009,08,08,00,24,15.00
2009,08,08,00,25,15.00
2009,08,08,00,26,15.00
2009,08,08,00,27,15.00
2009,08,08,00,28,15.00
2009,08,08,00,29,14.90
2009,08,08,00,30,14.90
2009,08,08,00,31,14.90
2009,08,08,00,32,14.90
2009,08,08,00,33,14.90
2009,08,08,00,34,14.80
2009,08,08,00,35,14.80
2009,08,08,00,36,14.80
2009,08,08,00,37,14.80
2009,08,08,00,38,14.80
2009,08,08,00,39,14.80
2009,08,08,00,40,14.80
2009,08,08,00,41,14.70
2009,08,08,00,42,14.70
2009,08,08,00,43,14.70
2009,08,08,00,44,14.70
2009,08,08,00,45,14.70
2009,08,08,00,46,14.70
2009,08,08,00,47,14.70
2009,08,08,00,48,14.70
2009,08,08,00,49,14.60
2009,08,08,00,50,14.60
2009,08,08,00,51,14.60
2009,08,08,00,52,14.60
2009,08,08,00,53,14.60
2009,08,08,00,54,14.60
2009,08,08,00,55,14.60
2009,08,08,00,56,14.60
2009,08,08,00,57,14.60
2009,08,08,00,58,14.50
2009,08,08,00,59,14.50
2009,08,08,01,00,14.50
2009,08,08,01,01,14.50
2009,08,08,01,02,14.50
2009,08,08,01,03,14.50
2009,08,08,01,04,14.50
2009,08,08,01,05,14.50
2009,08,08,01,06,14.50
2009,08,08,01,07,14.50
2009,08,08,01,08,14.50
2009,08,08,01,09,14.50
2009,08,08,01,10,14.40
2009,08,08,01,11,14.40
2009,08,08,01,12,14.40
2009,08,08,01,13,14.50
2009,08,08,01,14,14.50
2009,08,08,01,15,14.50
2009,08,08,01,16,14.50
2009,08,08,01,17,14.50
2009,08,08,01,18,14.50
2009,08,08,01,19,14.50
2009,08,08,01,20,14.50
2009,08,08,01,21,14.60
2009,08,08,01,22,14.60
2009,08,08,01,23,14.60
2009,08,08,01,24,14.60
2009,08,08,01,25,14.60
2009,08,08,01,26,14.60
2009,08,08,01,27,14.60
2009,08,08,01,28,14.60
2009,08,08,01,29,14.70
2009,08,08,01,30,14.70
2009,08,08,01,31,14.70
2009,08,08,01,32,14.70
2009,08,08,01,33,14.70
2009,08,08,01,34,14.70
2009,08,08,01,35,14.70
2009,08,08,01,36,14.70
2009,08,08,01,37,14.70
2009,08,08,01,38,14.80
2009,08,08,01,39,14.80
2009,08,08,01,40,14.80
2009,08,08,01,41,14.80
2009,08,08,01,42,14.80
2009,08,08,01,43,14.80
2009,08,08,01,44,14.80
2009,08,08,01,45,14.80
2009,08,08,01,46,14.80
2009,08,08,01,47,14.80
2009,08,08,01,48,14.80
2009,08,08,01,49,14.80
2009,08,08,01,50,14.80
2009,08,08,01,51,14.80
2009,08,08,01,52,14.80
2009,08,08,01,53,14.80
2009,08,08,01,54,14.70
2009,08,08,01,55,14.70
2009,08,08,01,56,14.70
2009,08,08,01,57,14.70
2009,08,08,01,58,14.70
2009,08,08,01,59,14.60
2009,08,08,02,00,14.60
2009,08,08,02,01,14.60
2009,08,08,02,02,14.60
2009,08,08,02,03,14.60
2009,08,08,02,04,14.60
2009,08,08,02,05,14.50
2009,08,08,02,06,14.50
2009,08,08,02,07,14.50
2009,08,08,02,08,14.50
2009,08,08,02,09,14.40
2009,08,08,02,10,14.40
2009,08,08,02,11,14.40
2009,08,08,02,12,14.40
2009,08,08,02,13,14.40
2009,08,08,02,14,14.40
2009,08,08,02,15,14.30
2009,08,08,02,16,14.30
2009,08,08,02,17,14.30
2009,08,08,02,18,14.30
2009,08,08,02,19,14.30
2009,08,08,02,20,14.30
2009,08,08,02,21,14.20
2009,08,08,02,22,14.20
2009,08,08,02,23,14.20
2009,08,08,02,24,14.20
2009,08,08,02,25,14.20
2009,08,08,02,26,14.20
2009,08,08,02,27,14.20
2009,08,08,02,28,14.20
2009,08,08,02,29,14.20
2009,08,08,02,30,14.20
2009,08,08,02,31,14.20
2009,08,08,02,32,14.20
2009,08,08,02,33,14.20
2009,08,08,02,34,14.20
2009,08,08,02,35,14.20
2009,08,08,02,36,14.20
2009,08,08,02,37,14.20
2009,08,08,02,38,14.20
2009,08,08,02,39,14.20
2009,08,08,02,40,14.20
2009,08,08,02,41,14.20
2009,08,08,02,42,14.10
2009,08,08,02,43,14.10
2009,08,08,02,44,14.10
2009,08,08,02,45,14.10
2009,08,08,02,46,14.10
2009,08,08,02,47,14.10
2009,08,08,02,48,14.10
2009,08,08,02,49,14.10
2009,08,08,02,50,14.10
2009,08,08,02,51,14.10
2009,08,08,02,52,14.10
2009,08,08,02,53,14.00
2009,08,08,02,54,14.00
2009,08,08,02,55,14.00
2009,08,08,02,56,14.00
2009,08,08,02,57,14.00
2009,08,08,02,58,14.00
2009,08,08,02,59,13.90
2009,08,08,03,00,13.90
2009,08,08,03,01,13.90
2009,08,08,03,02,13.90
2009,08,08,03,03,13.90
2009,08,08,03,04,13.90
2009,08,08,03,05,13.90
2009,08,08,03,06,13.90
2009,08,08,03,07,13.90
2009,08,08,03,08,13.90
2009,08,08,03,09,13.80
2009,08,08,03,10,13.80
2009,08,08,03,11,13.80
2009,08,08,03,12,13.80
2009,08,08,03,13,13.70
2009,08,08,03,14,13.70
2009,08,08,03,15,13.60
2009,08,08,03,16,13.60
2009,08,08,03,17,13.60
2009,08,08,03,18,13.60
2009,08,08,03,19,13.50
2009,08,08,03,20,13.50
2009,08,08,03,21,13.50
2009,08,08,03,22,13.40
2009,08,08,03,23,13.40
2009,08,08,03,24,13.40
2009,08,08,03,25,13.40
2009,08,08,03,26,13.40
2009,08,08,03,27,13.30
2009,08,08,03,28,13.30
2009,08,08,03,29,13.30
2009,08,08,03,30,13.30
2009,08,08,03,31,13.30
2009,08,08,03,32,13.30
2009,08,08,03,33,13.30
2009,08,08,03,34,13.30
2009,08,08,03,35,13.30
2009,08,08,03,36,13.30
2009,08,08,03,37,13.30
2009,08,08,03,38,13.30
2009,08,08,03,39,13.30
2009,08,08,03,40,13.30
2009,08,08,03,41,13.30
2009,08,08,03,42,13.20
2009,08,08,03,43,13.20
2009,08,08,03,44,13.20
2009,08,08,03,45,13.20
2009,08,08,03,46,13.20
2009,08,08,03,47,13.20
2009,08,08,03,48,13.20
2009,08,08,03,49,13.20
2009,08,08,03,50,13.20
2009,08,08,03,51,13.20
2009,08,08,03,52,13.20
2009,08,08,03,53,13.20
2009,08,08,03,54,13.20
2009,08,08,03,55,13.20
2009,08,08,03,56,13.20
2009,08,08,03,57,13.20
2009,08,08,03,58,13.20
2009,08,08,03,59,13.20
2009,08,08,04,00,13.20
2009,08,08,04,01,13.20
2009,08,08,04,02,13.20
2009,08,08,04,03,13.20
2009,08,08,04,04,13.10
2009,08,08,04,05,13.10
2009,08,08,04,06,13.10
2009,08,08,04,07,13.10
2009,08,08,04,08,13.10
2009,08,08,04,09,13.10
2009,08,08,04,10,13.10
2009,08,08,04,11,13.10
2009,08,08,04,12,13.10
2009,08,08,04,13,13.10
2009,08,08,04,14,13.10
2009,08,08,04,15,13.10
2009,08,08,04,16,13.10
2009,08,08,04,17,13.10
2009,08,08,04,18,13.00
2009,08,08,04,19,13.00
2009,08,08,04,20,13.00
2009,08,08,04,21,13.00
2009,08,08,04,22,13.00
2009,08,08,04,23,13.00
2009,08,08,04,24,12.90
2009,08,08,04,25,12.90
2009,08,08,04,26,12.90
2009,08,08,04,27,12.90
2009,08,08,04,28,12.90
2009,08,08,04,29,12.90
2009,08,08,04,30,12.90
2009,08,08,04,31,12.80
2009,08,08,04,32,12.80
2009,08,08,04,33,12.80
2009,08,08,04,34,12.80
2009,08,08,04,35,12.80
2009,08,08,04,36,12.80
2009,08,08,04,37,12.70
2009,08,08,04,38,12.70
2009,08,08,04,39,12.70
2009,08,08,04,40,12.70
2009,08,08,04,41,12.70
2009,08,08,04,42,12.70
2009,08,08,04,43,12.70
2009,08,08,04,44,12.60
2009,08,08,04,45,12.60
2009,08,08,04,46,12.60
2009,08,08,04,47,12.60
2009,08,08,04,48,12.60
2009,08,08,04,49,12.60
2009,08,08,04,50,12.60
2009,08,08,04,51,12.50
2009,08,08,04,52,12.50
2009,08,08,04,53,12.50
2009,08,08,04,54,12.50
2009,08,08,04,55,12.50
2009,08,08,04,56,12.50
2009,08,08,04,57,12.50
2009,08,08,04,58,12.40
2009,08,08,04,59,12.40
2009,08,08,05,00,12.40
2009,08,08,05,01,12.40
2009,08,08,05,02,12.40
2009,08,08,05,03,12.40
2009,08,08,05,04,12.40
2009,08,08,05,05,12.40
2009,08,08,05,06,12.40
2009,08,08,05,07,12.40
2009,08,08,05,08,12.40
2009,08,08,05,09,12.40
2009,08,08,05,10,12.40
2009,08,08,05,11,12.40
2009,08,08,05,12,12.40
2009,08,08,05,13,12.40
2009,08,08,05,14,12.30
2009,08,08,05,15,12.30
2009,08,08,05,16,12.30
2009,08,08,05,17,12.30
2009,08,08,05,18,12.30
2009,08,08,05,19,12.30
2009,08,08,05,20,12.30
2009,08,08,05,21,12.30
2009,08,08,05,22,12.30
2009,08,08,05,23,12.30
2009,08,08,05,24,12.30
2009,08,08,05,25,12.30
2009,08,08,05,26,12.30
2009,08,08,05,27,12.30
2009,08,08,05,28,12.30
2009,08,08,05,29,12.20
2009,08,08,05,30,12.20
2009,08,08,05,31,12.20
2009,08,08,05,32,12.20
2009,08,08,05,33,12.20
2009,08,08,05,34,12.20
2009,08,08,05,35,12.20
2009,08,08,05,36,12.20
2009,08,08,05,37,12.20
2009,08,08,05,38,12.20
2009,08,08,05,39,12.20
2009,08,08,05,40,12.20
2009,08,08,05,41,12.20
2009,08,08,05,42,12.20
2009,08,08,05,43,12.20
2009,08,08,05,44,12.20
2009,08,08,05,45,12.20
2009,08,08,05,46,12.20
2009,08,08,05,47,12.20
2009,08,08,05,48,12.20
2009,08,08,05,49,12.20
2009,08,08,05,50,12.20
2009,08,08,05,51,12.20
2009,08,08,05,52,12.20
2009,08,08,05,53,12.20
2009,08,08,05,54,12.20
2009,08,08,05,55,12.30
2009,08,08,05,56,12.30
2009,08,08,05,57,12.30
2009,08,08,05,58,12.30
2009,08,08,05,59,12.30
2009,08,08,06,00,12.30
2009,08,08,06,01,12.30
2009,08,08,06,02,12.30
2009,08,08,06,03,12.30
2009,08,08,06,04,12.30
2009,08,08,06,05,12.30
2009,08,08,06,06,12.30
2009,08,08,06,07,12.40
2009,08,08,06,08,12.40
2009,08,08,06,09,12.40
2009,08,08,06,10,12.40
2009,08,08,06,11,12.40
2009,08,08,06,12,12.40
2009,08,08,06,13,12.40
2009,08,08,06,14,12.40
2009,08,08,06,15,12.50
2009,08,08,06,16,12.50
2009,08,08,06,17,12.50
2009,08,08,06,18,12.50
2009,08,08,06,19,12.50
2009,08,08,06,20,12.50
2009,08,08,06,21,12.60
2009,08,08,06,22,12.60
2009,08,08,06,23,12.60
2009,08,08,06,24,12.60
2009,08,08,06,25,12.60
2009,08,08,06,26,12.60
2009,08,08,06,27,12.70
2009,08,08,06,28,12.70
2009,08,08,06,29,12.70
2009,08,08,06,30,12.70
2009,08,08,06,31,12.70
2009,08,08,06,32,12.70
2009,08,08,06,33,12.80
2009,08,08,06,34,12.80
2009,08,08,06,35,12.80
2009,08,08,06,36,12.80
2009,08,08,06,37,12.80
2009,08,08,06,38,12.80
2009,08,08,06,39,12.90
2009,08,08,06,40,12.90
2009,08,08,06,41,12.90
2009,08,08,06,42,12.90
2009,08,08,06,43,12.90
2009,08,08,06,44,12.90
2009,08,08,06,45,13.00
2009,08,08,06,46,13.00
2009,08,08,06,47,13.10
2009,08,08,06,48,13.10
2009,08,08,06,49,13.10
2009,08,08,06,50,13.20
2009,08,08,06,51,13.20
2009,08,08,06,52,13.20
2009,08,08,06,53,13.20
2009,08,08,06,54,13.20
2009,08,08,06,55,13.20
2009,08,08,06,56,13.20
2009,08,08,06,57,13.20
2009,08,08,06,58,13.20
2009,08,08,06,59,13.20
2009,08,08,07,00,13.30
2009,08,08,07,01,13.30
2009,08,08,07,02,13.30
2009,08,08,07,03,13.30
2009,08,08,07,04,13.30
2009,08,08,07,05,13.30
2009,08,08,07,06,13.30
2009,08,08,07,07,13.30
2009,08,08,07,08,13.40
2009,08,08,07,09,13.40
2009,08,08,07,10,13.40
2009,08,08,07,11,13.40
2009,08,08,07,12,13.40
2009,08,08,07,13,13.40
2009,08,08,07,14,13.40
2009,08,08,07,15,13.40
2009,08,08,07,16,13.40
2009,08,08,07,17,13.40
2009,08,08,07,18,13.50
2009,08,08,07,19,13.50
2009,08,08,07,20,13.50
2009,08,08,07,21,13.50
2009,08,08,07,22,13.50
2009,08,08,07,23,13.50
2009,08,08,07,24,13.50
2009,08,08,07,25,13.50
2009,08,08,07,26,13.60
2009,08,08,07,27,13.60
2009,08,08,07,28,13.60
2009,08,08,07,29,13.60
2009,08,08,07,30,13.60
2009,08,08,07,31,13.60
2009,08,08,07,32,13.60
2009,08,08,07,33,13.60
2009,08,08,07,34,13.60
2009,08,08,07,35,13.60
2009,08,08,07,36,13.70
2009,08,08,07,37,13.70
2009,08,08,07,38,13.70
2009,08,08,07,39,13.70
2009,08,08,07,40,13.70
2009,08,08,07,41,13.80
2009,08,08,07,42,13.80
2009,08,08,07,43,13.80
2009,08,08,07,44,13.80
2009,08,08,07,45,13.90
2009,08,08,07,46,13.90
2009,08,08,07,47,13.90
2009,08,08,07,48,13.90
2009,08,08,07,49,13.90
2009,08,08,07,50,14.00
2009,08,08,07,51,14.00
2009,08,08,07,52,14.10
2009,08,08,07,53,14.10
2009,08,08,07,54,14.10
2009,08,08,07,55,14.10
2009,08,08,07,56,14.20
2009,08,08,07,57,14.20
2009,08,08,07,58,14.20
2009,08,08,07,59,14.20
2009,08,08,08,00,14.30
2009,08,08,08,01,14.30
2009,08,08,08,02,14.30
2009,08,08,08,03,14.30
2009,08,08,08,04,14.40
2009,08,08,08,05,14.40
2009,08,08,08,06,14.40
2009,08,08,08,07,14.40
2009,08,08,08,08,14.50
2009,08,08,08,09,14.50
2009,08,08,08,10,14.60
2009,08,08,08,11,14.60
2009,08,08,08,12,14.70
2009,08,08,08,13,14.70
2009,08,08,08,14,14.70
2009,08,08,08,15,14.70
2009,08,08,08,16,14.80
2009,08,08,08,17,14.80
2009,08,08,08,18,14.80
2009,08,08,08,19,14.80
2009,08,08,08,20,14.90
2009,08,08,08,21,15.00
2009,08,08,08,22,15.00
2009,08,08,08,23,15.00
2009,08,08,08,24,15.00
2009,08,08,08,25,15.00
2009,08,08,08,26,15.00
2009,08,08,08,27,15.00
2009,08,08,08,28,15.00
2009,08,08,08,29,15.00
2009,08,08,08,30,15.00
2009,08,08,08,31,15.00
2009,08,08,08,32,15.10
2009,08,08,08,33,15.10
2009,08,08,08,34,15.20
2009,08,08,08,35,15.20
2009,08,08,08,36,15.30
2009,08,08,08,37,15.30
2009,08,08,08,38,15.30
2009,08,08,08,39,15.30
2009,08,08,08,40,15.40
2009,08,08,08,41,15.40
2009,08,08,08,42,15.40
2009,08,08,08,43,15.50
2009,08,08,08,44,15.50
2009,08,08,08,45,15.60
2009,08,08,08,46,15.60
2009,08,08,08,47,15.70
2009,08,08,08,48,15.70
2009,08,08,08,49,15.80
2009,08,08,08,50,15.80
2009,08,08,08,51,15.80
2009,08,08,08,52,15.90
2009,08,08,08,53,15.90
2009,08,08,08,54,15.90
2009,08,08,08,55,16.00
2009,08,08,08,56,16.00
2009,08,08,08,57,16.10
2009,08,08,08,58,16.10
2009,08,08,08,59,16.10
2009,08,08,09,00,16.20
2009,08,08,09,01,16.20
2009,08,08,09,02,16.30
2009,08,08,09,03,16.30
2009,08,08,09,04,16.30
2009,08,08,09,05,16.30
2009,08,08,09,06,16.40
2009,08,08,09,07,16.40
2009,08,08,09,08,16.40
2009,08,08,09,09,16.40
2009,08,08,09,10,16.50
2009,08,08,09,11,16.50
2009,08,08,09,12,16.60
2009,08,08,09,13,16.60
2009,08,08,09,14,16.60
2009,08,08,09,15,16.60
2009,08,08,09,16,16.60
2009,08,08,09,17,16.60
2009,08,08,09,18,16.60
2009,08,08,09,19,16.60
2009,08,08,09,20,16.60
2009,08,08,09,21,16.60
2009,08,08,09,22,16.60
2009,08,08,09,23,16.60
2009,08,08,09,24,16.60
2009,08,08,09,25,16.60
2009,08,08,09,26,16.60
2009,08,08,09,27,16.60
2009,08,08,09,28,16.70
2009,08,08,09,29,16.70
2009,08,08,09,30,16.70
2009,08,08,09,31,16.80
2009,08,08,09,32,16.80
2009,08,08,09,33,16.80
2009,08,08,09,34,16.90
2009,08,08,09,35,16.90
2009,08,08,09,36,16.90
2009,08,08,09,37,17.00
2009,08,08,09,38,17.00
2009,08,08,09,39,17.10
2009,08,08,09,40,17.10
2009,08,08,09,41,17.20
2009,08,08,09,42,17.20
2009,08,08,09,43,17.20
2009,08,08,09,44,17.30
2009,08,08,09,45,17.30
2009,08,08,09,46,17.30
2009,08,08,09,47,17.30
2009,08,08,09,48,17.40
2009,08,08,09,49,17.40
2009,08,08,09,50,17.40
2009,08,08,09,51,17.40
2009,08,08,09,52,17.30
2009,08,08,09,53,17.30
2009,08,08,09,54,17.40
2009,08,08,09,55,17.40
2009,08,08,09,56,17.40
2009,08,08,09,57,17.40
2009,08,08,09,58,17.40
2009,08,08,09,59,17.40
2009,08,08,10,00,17.50
2009,08,08,10,01,17.50
2009,08,08,10,02,17.50
2009,08,08,10,03,17.60
2009,08,08,10,04,17.60
2009,08,08,10,05,17.60
2009,08,08,10,06,17.60
2009,08,08,10,07,17.60
2009,08,08,10,08,17.60
2009,08,08,10,09,17.60
2009,08,08,10,10,17.60
2009,08,08,10,11,17.60
2009,08,08,10,12,17.60
2009,08,08,10,13,17.60
2009,08,08,10,14,17.60
2009,08,08,10,15,17.60
2009,08,08,10,16,17.60
2009,08,08,10,17,17.70
2009,08,08,10,18,17.70
2009,08,08,10,19,17.70
2009,08,08,10,20,17.70
2009,08,08,10,21,17.80
2009,08,08,10,22,17.80
2009,08,08,10,23,17.80
2009,08,08,10,24,17.80
2009,08,08,10,25,17.90
2009,08,08,10,26,17.90
2009,08,08,10,27,17.90
2009,08,08,10,28,17.90
2009,08,08,10,29,18.00
2009,08,08,10,30,18.00
2009,08,08,10,31,18.10
2009,08,08,10,32,18.10
2009,08,08,10,33,18.10
2009,08,08,10,34,18.10
2009,08,08,10,35,18.10
2009,08,08,10,36,18.10
2009,08,08,10,37,18.20
2009,08,08,10,38,18.20
2009,08,08,10,39,18.20
2009,08,08,10,40,18.20
2009,08,08,10,41,18.20
2009,08,08,10,42,18.20
2009,08,08,10,43,18.20
2009,08,08,10,44,18.20
2009,08,08,10,45,18.10
2009,08,08,10,46,18.10
2009,08,08,10,47,18.10
2009,08,08,10,48,18.10
2009,08,08,10,49,18.10
2009,08,08,10,50,18.00
2009,08,08,10,51,18.00
2009,08,08,10,52,18.00
2009,08,08,10,53,18.00
2009,08,08,10,54,18.00
2009,08,08,10,55,18.00
2009,08,08,10,56,18.00
2009,08,08,10,57,18.00
2009,08,08,10,58,18.00
2009,08,08,10,59,18.00
2009,08,08,11,00,18.10
2009,08,08,11,01,18.10
2009,08,08,11,02,18.10
2009,08,08,11,03,18.10
2009,08,08,11,04,18.10
2009,08,08,11,05,18.20
2009,08,08,11,06,18.20
2009,08,08,11,07,18.20
2009,08,08,11,08,18.20
2009,08,08,11,09,18.30
2009,08,08,11,10,18.30
2009,08,08,11,11,18.30
2009,08,08,11,12,18.30
2009,08,08,11,13,18.30
2009,08,08,11,14,18.40
2009,08,08,11,15,18.40
2009,08,08,11,16,18.50
2009,08,08,11,17,18.50
2009,08,08,11,18,18.60
2009,08,08,11,19,18.60
2009,08,08,11,20,18.60
2009,08,08,11,21,18.60
2009,08,08,11,22,18.70
2009,08,08,11,23,18.70
2009,08,08,11,24,18.70
2009,08,08,11,25,18.70
2009,08,08,11,26,18.70
2009,08,08,11,27,18.70
2009,08,08,11,28,18.70
2009,08,08,11,29,18.70
2009,08,08,11,30,18.70
2009,08,08,11,31,18.70
2009,08,08,11,32,18.70
2009,08,08,11,33,18.60
2009,08,08,11,34,18.60
2009,08,08,11,35,18.60
2009,08,08,11,36,18.60
2009,08,08,11,37,18.60
2009,08,08,11,38,18.60
2009,08,08,11,39,18.60
2009,08,08,11,40,18.60
2009,08,08,11,41,18.60
2009,08,08,11,42,18.60
2009,08,08,11,43,18.60
2009,08,08,11,44,18.60
2009,08,08,11,45,18.60
2009,08,08,11,46,18.60
2009,08,08,11,47,18.60
2009,08,08,11,48,18.60
2009,08,08,11,49,18.60
2009,08,08,11,50,18.60
2009,08,08,11,51,18.60
2009,08,08,11,52,18.60
2009,08,08,11,53,18.70
2009,08,08,11,54,18.70
2009,08,08,11,55,18.70
2009,08,08,11,56,18.70
2009,08,08,11,57,18.70
2009,08,08,11,58,18.70
2009,08,08,11,59,18.70
2009,08,08,12,00,18.70
2009,08,08,12,01,18.70
2009,08,08,12,02,18.70
2009,08,08,12,03,18.70
2009,08,08,12,04,18.70
2009,08,08,12,05,18.70
2009,08,08,12,06,18.70
2009,08,08,12,07,18.80
2009,08,08,12,08,18.80
2009,08,08,12,09,18.80
2009,08,08,12,10,18.80
2009,08,08,12,11,18.80
2009,08,08,12,12,18.90
2009,08,08,12,13,18.90
2009,08,08,12,14,18.90
2009,08,08,12,15,18.90
2009,08,08,12,16,18.90
2009,08,08,12,17,18.90
2009,08,08,12,18,19.00
2009,08,08,12,19,19.00
2009,08,08,12,20,19.10
2009,08,08,12,21,19.10
2009,08,08,12,22,19.10
2009,08,08,12,23,19.10
2009,08,08,12,24,19.10
2009,08,08,12,25,19.10
2009,08,08,12,26,19.10
2009,08,08,12,27,19.10
2009,08,08,12,28,19.20
2009,08,08,12,29,19.20
2009,08,08,12,30,19.20
2009,08,08,12,31,19.20
2009,08,08,12,32,19.20
2009,08,08,12,33,19.20
2009,08,08,12,34,19.20
2009,08,08,12,35,19.20
2009,08,08,12,36,19.20
2009,08,08,12,37,19.20
2009,08,08,12,38,19.20
2009,08,08,12,39,19.20
2009,08,08,12,40,19.20
2009,08,08,12,41,19.20
2009,08,08,12,42,19.20
2009,08,08,12,43,19.20
2009,08,08,12,44,19.20
2009,08,08,12,45,19.20
2009,08,08,12,46,19.10
2009,08,08,12,47,19.10
2009,08,08,12,48,19.10
2009,08,08,12,49,19.10
2009,08,08,12,50,19.10
2009,08,08,12,51,19.10
2009,08,08,12,52,19.10
2009,08,08,12,53,19.10
2009,08,08,12,54,19.10
2009,08,08,12,55,19.10
2009,08,08,12,56,19.20
2009,08,08,12,57,19.20
2009,08,08,12,58,19.20
2009,08,08,12,59,19.20
2009,08,08,13,00,19.20
2009,08,08,13,01,19.20
2009,08,08,13,02,19.20
2009,08,08,13,03,19.20
2009,08,08,13,04,19.20
2009,08,08,13,05,19.20
2009,08,08,13,06,19.20
2009,08,08,13,07,19.20
2009,08,08,13,08,19.20
2009,08,08,13,09,19.20
2009,08,08,13,10,19.30
2009,08,08,13,11,19.30
2009,08,08,13,12,19.30
2009,08,08,13,13,19.30
2009,08,08,13,14,19.30
2009,08,08,13,15,19.30
2009,08,08,13,16,19.30
2009,08,08,13,17,19.30
2009,08,08,13,18,19.30
2009,08,08,13,19,19.30
2009,08,08,13,20,19.30
2009,08,08,13,21,19.40
2009,08,08,13,22,19.40
2009,08,08,13,23,19.50
2009,08,08,13,24,19.50
2009,08,08,13,25,19.60
2009,08,08,13,26,19.60
2009,08,08,13,27,19.60
2009,08,08,13,28,19.60
2009,08,08,13,29,19.60
2009,08,08,13,30,19.60
2009,08,08,13,31,19.70
2009,08,08,13,32,19.70
2009,08,08,13,33,19.60
2009,08,08,13,34,19.60
2009,08,08,13,35,19.60
2009,08,08,13,36,19.70
2009,08,08,13,37,19.70
2009,08,08,13,38,19.80
2009,08,08,13,39,19.90
2009,08,08,13,40,19.90
2009,08,08,13,41,20.00
2009,08,08,13,42,20.10
2009,08,08,13,43,20.20
2009,08,08,13,44,20.20
2009,08,08,13,45,20.30
2009,08,08,13,46,20.30
2009,08,08,13,47,20.40
2009,08,08,13,48,20.40
2009,08,08,13,49,20.50
2009,08,08,13,50,20.50
2009,08,08,13,51,20.60
2009,08,08,13,52,20.70
2009,08,08,13,53,20.70
2009,08,08,13,54,20.70
2009,08,08,13,55,20.80
2009,08,08,13,56,20.80
2009,08,08,13,57,20.70
2009,08,08,13,58,20.70
2009,08,08,13,59,20.70
2009,08,08,14,00,20.70
2009,08,08,14,01,20.80
2009,08,08,14,02,20.80
2009,08,08,14,03,20.80
2009,08,08,14,04,20.80
2009,08,08,14,05,20.80
2009,08,08,14,06,20.80
2009,08,08,14,07,20.80
2009,08,08,14,08,20.80
2009,08,08,14,09,20.80
2009,08,08,14,10,20.90
2009,08,08,14,11,20.90
2009,08,08,14,12,20.90
2009,08,08,14,13,21.00
2009,08,08,14,14,21.00
2009,08,08,14,15,21.10
2009,08,08,14,16,21.10
2009,08,08,14,17,21.20
2009,08,08,14,18,21.20
2009,08,08,14,19,21.20
2009,08,08,14,20,21.30
2009,08,08,14,21,21.30
2009,08,08,14,22,21.30
2009,08,08,14,23,21.30
2009,08,08,14,24,21.30
2009,08,08,14,25,21.20
2009,08,08,14,26,21.20
2009,08,08,14,27,21.20
2009,08,08,14,28,21.20
2009,08,08,14,29,21.20
2009,08,08,14,30,21.20
2009,08,08,14,31,21.20
2009,08,08,14,32,21.20
2009,08,08,14,33,21.10
2009,08,08,14,34,21.10
2009,08,08,14,35,21.00
2009,08,08,14,36,20.90
2009,08,08,14,37,20.80
2009,08,08,14,38,20.80
2009,08,08,14,39,20.90
2009,08,08,14,40,20.90
2009,08,08,14,41,20.90
2009,08,08,14,42,20.90
2009,08,08,14,43,20.90
2009,08,08,14,44,20.90
2009,08,08,14,45,20.90
2009,08,08,14,46,20.80
2009,08,08,14,47,20.90
2009,08,08,14,48,20.90
2009,08,08,14,49,20.90
2009,08,08,14,50,21.00
2009,08,08,14,51,21.00
2009,08,08,14,52,21.10
2009,08,08,14,53,21.10
2009,08,08,14,54,21.10
2009,08,08,14,55,21.20
2009,08,08,14,56,21.20
2009,08,08,14,57,21.30
2009,08,08,14,58,21.40
2009,08,08,14,59,21.50
2009,08,08,15,00,21.60
2009,08,08,15,01,21.80
2009,08,08,15,02,21.80
2009,08,08,15,03,22.00
2009,08,08,15,04,22.20
2009,08,08,15,05,22.30
2009,08,08,15,06,22.50
2009,08,08,15,07,22.60
2009,08,08,15,08,22.70
2009,08,08,15,09,22.80
2009,08,08,15,10,22.90
2009,08,08,15,11,22.90
2009,08,08,15,12,23.00
2009,08,08,15,13,23.00
2009,08,08,15,14,22.90
2009,08,08,15,15,22.90
2009,08,08,15,16,22.80
2009,08,08,15,17,22.80
2009,08,08,15,18,22.70
2009,08,08,15,19,22.60
2009,08,08,15,20,22.50
2009,08,08,15,21,22.30
2009,08,08,15,22,22.30
2009,08,08,15,23,22.20
2009,08,08,15,24,22.20
2009,08,08,15,25,22.20
2009,08,08,15,26,22.20
2009,08,08,15,27,22.20
2009,08,08,15,28,22.10
2009,08,08,15,29,22.10
2009,08,08,15,30,22.10
2009,08,08,15,31,22.10
2009,08,08,15,32,22.00
2009,08,08,15,33,22.00
2009,08,08,15,34,21.90
2009,08,08,15,35,21.90
2009,08,08,15,36,21.80
2009,08,08,15,37,21.80
2009,08,08,15,38,21.80
2009,08,08,15,39,21.70
2009,08,08,15,40,21.70
2009,08,08,15,41,21.60
2009,08,08,15,42,21.60
2009,08,08,15,43,21.60
2009,08,08,15,44,21.60
2009,08,08,15,45,21.50
2009,08,08,15,46,21.50
2009,08,08,15,47,21.50
2009,08,08,15,48,21.40
2009,08,08,15,49,21.40
2009,08,08,15,50,21.40
2009,08,08,15,51,21.40
2009,08,08,15,52,21.30
2009,08,08,15,53,21.30
2009,08,08,15,54,21.30
2009,08,08,15,55,21.30
2009,08,08,15,56,21.30
2009,08,08,15,57,21.30
2009,08,08,15,58,21.30
2009,08,08,15,59,21.30
2009,08,08,16,00,21.20
2009,08,08,16,01,21.20
2009,08,08,16,02,21.10
2009,08,08,16,03,21.10
2009,08,08,16,04,21.00
2009,08,08,16,05,20.90
2009,08,08,16,06,20.90
2009,08,08,16,07,20.90
2009,08,08,16,08,20.90
2009,08,08,16,09,20.90
2009,08,08,16,10,20.90
2009,08,08,16,11,20.90
2009,08,08,16,12,20.90
2009,08,08,16,13,20.90
2009,08,08,16,14,20.80
2009,08,08,16,15,20.80
2009,08,08,16,16,20.70
2009,08,08,16,17,20.70
2009,08,08,16,18,20.70
2009,08,08,16,19,20.70
2009,08,08,16,20,20.60
2009,08,08,16,21,20.60
2009,08,08,16,22,20.60
2009,08,08,16,23,20.60
2009,08,08,16,24,20.60
2009,08,08,16,25,20.60
2009,08,08,16,26,20.60
2009,08,08,16,27,20.60
2009,08,08,16,28,20.60
2009,08,08,16,29,20.60
2009,08,08,16,30,20.60
2009,08,08,16,31,20.50
2009,08,08,16,32,20.50
2009,08,08,16,33,20.50
2009,08,08,16,34,20.50
2009,08,08,16,35,20.50
2009,08,08,16,36,20.40
2009,08,08,16,37,20.40
2009,08,08,16,38,20.40
2009,08,08,16,39,20.40
2009,08,08,16,40,20.40
2009,08,08,16,41,20.40
2009,08,08,16,42,20.40
2009,08,08,16,43,20.30
2009,08,08,16,44,20.30
2009,08,08,16,45,20.30
2009,08,08,16,46,20.30
2009,08,08,16,47,20.30
2009,08,08,16,48,20.30
2009,08,08,16,49,20.30
2009,08,08,16,50,20.30
2009,08,08,16,51,20.30
2009,08,08,16,52,20.30
2009,08,08,16,53,20.30
2009,08,08,16,54,20.20
2009,08,08,16,55,20.20
2009,08,08,16,56,20.20
2009,08,08,16,57,20.20
2009,08,08,16,58,20.20
2009,08,08,16,59,20.20
2009,08,08,17,00,20.10
2009,08,08,17,01,20.10
2009,08,08,17,02,20.10
2009,08,08,17,03,20.10
2009,08,08,17,04,20.10
2009,08,08,17,05,20.10
2009,08,08,17,06,20.10
2009,08,08,17,07,20.10
2009,08,08,17,08,20.10
2009,08,08,17,09,20.10
2009,08,08,17,10,20.10
2009,08,08,17,11,20.10
2009,08,08,17,12,20.10
2009,08,08,17,13,20.10
2009,08,08,17,14,20.10
2009,08,08,17,15,20.10
2009,08,08,17,16,20.20
2009,08,08,17,17,20.20
2009,08,08,17,18,20.20
2009,08,08,17,19,20.30